STARLINK-1195 (45102 NORAD) Tracking and Keplerian Element Data

This shows tracking and keplerian element data for the satellite.

Feedback or suggestion? Click here.




ElementValue
Catalog45102
NameSTARLINK-1195
Epoch Orbit2481
Epoch Day186.91667824
Epoch Year2020
RAAN196.1763
Inclination52.9939
Eccentricity0.0001269
Argument of Perigee89.5061
Mean Anonmoly352.6021
Mean Motion15.05561353
Decay Rate0.00041107
L11 45102U 20006BL 20186.91667824 .00041107 00000-0 28254-2 0 9996
L22 45102 52.9939 196.1763 0001269 89.5061 352.6021 15.05561353 24819

Live tracking and technical data element details for STARLINK-1195 (NORAD 45102). STARLINK-1195 can be tracked NOW for your location showing map with azimuth and elevation plus other details from your city location.

Track the satellite on the map from your city or location and see movement details for azimuth, elevation, latitude, longitude, range, height, and movement on the map or in text.







IsCatalogInMostPopularTable: catalog: 45102, numindb: 33
Update: records affected: 1



GetName: 45102 STARLINK-1195

Hit Count: updated at: Mon, 06 Jul 2020 06:40:37 GMT